Year,Month,Day,Hour,Minute,Value (Times are PST for temperature in C)
2009,05,23,00,00,10.40
2009,05,23,00,01,10.40
2009,05,23,00,02,10.40
2009,05,23,00,03,10.30
2009,05,23,00,04,10.30
2009,05,23,00,05,10.30
2009,05,23,00,06,10.30
2009,05,23,00,07,10.20
2009,05,23,00,08,10.20
2009,05,23,00,09,10.20
2009,05,23,00,10,10.20
2009,05,23,00,11,10.20
2009,05,23,00,12,10.20
2009,05,23,00,13,10.20
2009,05,23,00,14,10.10
2009,05,23,00,15,10.10
2009,05,23,00,16,10.10
2009,05,23,00,17,10.10
2009,05,23,00,18,10.10
2009,05,23,00,19,10.10
2009,05,23,00,20,10.10
2009,05,23,00,21,10.10
2009,05,23,00,22,10.10
2009,05,23,00,23,10.00
2009,05,23,00,24,9.90
2009,05,23,00,25,9.90
2009,05,23,00,26,9.90
2009,05,23,00,27,9.90
2009,05,23,00,28,10.00
2009,05,23,00,29,10.00
2009,05,23,00,30,9.90
2009,05,23,00,31,9.90
2009,05,23,00,32,9.90
2009,05,23,00,33,9.90
2009,05,23,00,34,9.90
2009,05,23,00,35,9.90
2009,05,23,00,36,9.90
2009,05,23,00,37,9.90
2009,05,23,00,38,9.90
2009,05,23,00,39,9.90
2009,05,23,00,40,9.90
2009,05,23,00,41,9.90
2009,05,23,00,42,9.90
2009,05,23,00,43,9.90
2009,05,23,00,44,9.90
2009,05,23,00,45,9.90
2009,05,23,00,46,9.90
2009,05,23,00,47,9.90
2009,05,23,00,48,9.90
2009,05,23,00,49,9.90
2009,05,23,00,50,9.90
2009,05,23,00,51,9.80
2009,05,23,00,52,9.80
2009,05,23,00,53,9.80
2009,05,23,00,54,9.70
2009,05,23,00,55,9.70
2009,05,23,00,56,9.70
2009,05,23,00,57,9.70
2009,05,23,00,58,9.70
2009,05,23,00,59,9.60
2009,05,23,01,00,9.60
2009,05,23,01,01,9.50
2009,05,23,01,02,9.50
2009,05,23,01,03,9.40
2009,05,23,01,04,9.40
2009,05,23,01,05,9.40
2009,05,23,01,06,9.40
2009,05,23,01,07,9.30
2009,05,23,01,08,9.30
2009,05,23,01,09,9.30
2009,05,23,01,10,9.30
2009,05,23,01,11,9.30
2009,05,23,01,12,9.20
2009,05,23,01,13,9.20
2009,05,23,01,14,9.20
2009,05,23,01,15,9.20
2009,05,23,01,16,9.20
2009,05,23,01,17,9.20
2009,05,23,01,18,9.20
2009,05,23,01,19,9.20
2009,05,23,01,20,9.20
2009,05,23,01,21,9.20
2009,05,23,01,22,9.20
2009,05,23,01,23,9.20
2009,05,23,01,24,9.20
2009,05,23,01,25,9.20
2009,05,23,01,26,9.20
2009,05,23,01,27,9.20
2009,05,23,01,28,9.20
2009,05,23,01,29,9.20
2009,05,23,01,30,9.20
2009,05,23,01,31,9.20
2009,05,23,01,32,9.20
2009,05,23,01,33,9.20
2009,05,23,01,34,9.20
2009,05,23,01,35,9.20
2009,05,23,01,36,9.20
2009,05,23,01,37,9.20
2009,05,23,01,38,9.10
2009,05,23,01,39,9.10
2009,05,23,01,40,9.10
2009,05,23,01,41,9.10
2009,05,23,01,42,9.10
2009,05,23,01,43,9.10
2009,05,23,01,44,9.10
2009,05,23,01,45,9.10
2009,05,23,01,46,9.00
2009,05,23,01,47,9.00
2009,05,23,01,48,9.00
2009,05,23,01,49,9.00
2009,05,23,01,50,9.00
2009,05,23,01,51,9.00
2009,05,23,01,52,9.00
2009,05,23,01,53,9.00
2009,05,23,01,54,9.00
2009,05,23,01,55,9.00
2009,05,23,01,56,9.00
2009,05,23,01,57,9.00
2009,05,23,01,58,9.00
2009,05,23,01,59,9.00
2009,05,23,02,00,9.00
2009,05,23,02,01,9.00
2009,05,23,02,02,9.00
2009,05,23,02,03,9.00
2009,05,23,02,04,9.00
2009,05,23,02,05,9.00
2009,05,23,02,06,9.00
2009,05,23,02,07,9.00
2009,05,23,02,08,9.00
2009,05,23,02,09,9.00
2009,05,23,02,10,8.90
2009,05,23,02,11,8.90
2009,05,23,02,12,8.90
2009,05,23,02,13,8.90
2009,05,23,02,14,8.90
2009,05,23,02,15,8.90
2009,05,23,02,16,8.90
2009,05,23,02,17,8.90
2009,05,23,02,18,8.90
2009,05,23,02,19,8.90
2009,05,23,02,20,8.90
2009,05,23,02,21,8.80
2009,05,23,02,22,8.80
2009,05,23,02,23,8.80
2009,05,23,02,24,8.80
2009,05,23,02,25,8.80
2009,05,23,02,26,8.80
2009,05,23,02,27,8.80
2009,05,23,02,28,8.80
2009,05,23,02,29,8.80
2009,05,23,02,30,8.80
2009,05,23,02,31,8.80
2009,05,23,02,32,8.80
2009,05,23,02,33,8.80
2009,05,23,02,34,8.80
2009,05,23,02,35,8.80
2009,05,23,02,36,8.80
2009,05,23,02,37,8.80
2009,05,23,02,38,8.80
2009,05,23,02,39,8.80
2009,05,23,02,40,8.70
2009,05,23,02,41,8.70
2009,05,23,02,42,8.70
2009,05,23,02,43,8.70
2009,05,23,02,44,8.70
2009,05,23,02,45,8.70
2009,05,23,02,46,8.70
2009,05,23,02,47,8.70
2009,05,23,02,48,8.70
2009,05,23,02,49,8.70
2009,05,23,02,50,8.70
2009,05,23,02,51,8.70
2009,05,23,02,52,8.70
2009,05,23,02,53,8.60
2009,05,23,02,54,8.60
2009,05,23,02,55,8.60
2009,05,23,02,56,8.60
2009,05,23,02,57,8.60
2009,05,23,02,58,8.60
2009,05,23,02,59,8.60
2009,05,23,03,00,8.50
2009,05,23,03,01,8.50
2009,05,23,03,02,8.50
2009,05,23,03,03,8.50
2009,05,23,03,04,8.50
2009,05,23,03,05,8.50
2009,05,23,03,06,8.40
2009,05,23,03,07,8.40
2009,05,23,03,08,8.40
2009,05,23,03,09,8.40
2009,05,23,03,10,8.30
2009,05,23,03,11,8.30
2009,05,23,03,12,8.30
2009,05,23,03,13,8.20
2009,05,23,03,14,8.20
2009,05,23,03,15,8.20
2009,05,23,03,16,8.20
2009,05,23,03,17,8.20
2009,05,23,03,18,8.20
2009,05,23,03,19,8.20
2009,05,23,03,20,8.20
2009,05,23,03,21,8.20
2009,05,23,03,22,8.10
2009,05,23,03,23,8.10
2009,05,23,03,24,8.10
2009,05,23,03,25,8.10
2009,05,23,03,26,8.10
2009,05,23,03,27,8.10
2009,05,23,03,28,8.10
2009,05,23,03,29,8.10
2009,05,23,03,30,8.10
2009,05,23,03,31,8.10
2009,05,23,03,32,8.10
2009,05,23,03,33,8.10
2009,05,23,03,34,8.10
2009,05,23,03,35,8.10
2009,05,23,03,36,8.10
2009,05,23,03,37,8.10
2009,05,23,03,38,8.10
2009,05,23,03,39,8.10
2009,05,23,03,40,8.10
2009,05,23,03,41,8.10
2009,05,23,03,42,8.10
2009,05,23,03,43,8.10
2009,05,23,03,44,8.00
2009,05,23,03,45,8.00
2009,05,23,03,46,8.00
2009,05,23,03,47,8.00
2009,05,23,03,48,8.00
2009,05,23,03,49,8.00
2009,05,23,03,50,8.00
2009,05,23,03,51,8.00
2009,05,23,03,52,8.00
2009,05,23,03,53,7.90
2009,05,23,03,54,7.90
2009,05,23,03,55,7.90
2009,05,23,03,56,7.90
2009,05,23,03,57,7.90
2009,05,23,03,58,7.80
2009,05,23,03,59,7.80
2009,05,23,04,00,7.80
2009,05,23,04,01,7.80
2009,05,23,04,02,7.80
2009,05,23,04,03,7.80
2009,05,23,04,04,7.80
2009,05,23,04,05,7.80
2009,05,23,04,06,7.70
2009,05,23,04,07,7.70
2009,05,23,04,08,7.70
2009,05,23,04,09,7.60
2009,05,23,04,10,7.60
2009,05,23,04,11,7.60
2009,05,23,04,12,7.50
2009,05,23,04,13,7.50
2009,05,23,04,14,7.50
2009,05,23,04,15,7.40
2009,05,23,04,16,7.40
2009,05,23,04,17,7.40
2009,05,23,04,18,7.40
2009,05,23,04,19,7.40
2009,05,23,04,20,7.40
2009,05,23,04,21,7.40
2009,05,23,04,22,7.30
2009,05,23,04,23,7.30
2009,05,23,04,24,7.30
2009,05,23,04,25,7.40
2009,05,23,04,26,7.30
2009,05,23,04,27,7.30
2009,05,23,04,28,7.30
2009,05,23,04,29,7.30
2009,05,23,04,30,7.30
2009,05,23,04,31,7.30
2009,05,23,04,32,7.30
2009,05,23,04,33,7.30
2009,05,23,04,34,7.30
2009,05,23,04,35,7.30
2009,05,23,04,36,7.30
2009,05,23,04,37,7.30
2009,05,23,04,38,7.30
2009,05,23,04,39,7.30
2009,05,23,04,40,7.20
2009,05,23,04,41,7.20
2009,05,23,04,42,7.20
2009,05,23,04,43,7.20
2009,05,23,04,44,7.20
2009,05,23,04,45,7.10
2009,05,23,04,46,7.10
2009,05,23,04,47,7.10
2009,05,23,04,48,7.10
2009,05,23,04,49,7.10
2009,05,23,04,50,7.00
2009,05,23,04,51,7.00
2009,05,23,04,52,7.00
2009,05,23,04,53,7.00
2009,05,23,04,54,7.00
2009,05,23,04,55,7.00
2009,05,23,04,56,7.00
2009,05,23,04,57,7.00
2009,05,23,04,58,7.00
2009,05,23,04,59,7.00
2009,05,23,05,00,7.00
2009,05,23,05,01,7.00
2009,05,23,05,02,7.00
2009,05,23,05,03,6.90
2009,05,23,05,04,6.90
2009,05,23,05,05,6.90
2009,05,23,05,06,6.90
2009,05,23,05,07,6.90
2009,05,23,05,08,6.90
2009,05,23,05,09,6.90
2009,05,23,05,10,6.80
2009,05,23,05,11,6.90
2009,05,23,05,12,6.90
2009,05,23,05,13,6.90
2009,05,23,05,14,6.90
2009,05,23,05,15,6.90
2009,05,23,05,16,6.90
2009,05,23,05,17,6.90
2009,05,23,05,18,6.90
2009,05,23,05,19,6.90
2009,05,23,05,20,6.80
2009,05,23,05,21,6.80
2009,05,23,05,22,6.80
2009,05,23,05,23,6.80
2009,05,23,05,24,6.80
2009,05,23,05,25,6.80
2009,05,23,05,26,6.80
2009,05,23,05,27,6.80
2009,05,23,05,28,6.80
2009,05,23,05,29,6.80
2009,05,23,05,30,6.80
2009,05,23,05,31,6.80
2009,05,23,05,32,6.80
2009,05,23,05,33,6.70
2009,05,23,05,34,6.70
2009,05,23,05,35,6.70
2009,05,23,05,36,6.70
2009,05,23,05,37,6.70
2009,05,23,05,38,6.60
2009,05,23,05,39,6.60
2009,05,23,05,40,6.60
2009,05,23,05,41,6.60
2009,05,23,05,42,6.60
2009,05,23,05,43,6.60
2009,05,23,05,44,6.60
2009,05,23,05,45,6.60
2009,05,23,05,46,6.60
2009,05,23,05,47,6.60
2009,05,23,05,48,6.60
2009,05,23,05,49,6.70
2009,05,23,05,50,6.70
2009,05,23,05,51,6.70
2009,05,23,05,52,6.70
2009,05,23,05,53,6.70
2009,05,23,05,54,6.70
2009,05,23,05,55,6.80
2009,05,23,05,56,6.80
2009,05,23,05,57,6.80
2009,05,23,05,58,6.80
2009,05,23,05,59,6.80
2009,05,23,06,00,6.80
2009,05,23,06,01,6.80
2009,05,23,06,02,6.80
2009,05,23,06,03,6.80
2009,05,23,06,04,6.80
2009,05,23,06,05,6.80
2009,05,23,06,06,6.80
2009,05,23,06,07,6.80
2009,05,23,06,08,6.80
2009,05,23,06,09,6.80
2009,05,23,06,10,6.80
2009,05,23,06,11,6.80
2009,05,23,06,12,6.90
2009,05,23,06,13,6.90
2009,05,23,06,14,6.90
2009,05,23,06,15,6.90
2009,05,23,06,16,7.00
2009,05,23,06,17,7.00
2009,05,23,06,18,7.00
2009,05,23,06,19,7.00
2009,05,23,06,20,7.10
2009,05,23,06,21,7.10
2009,05,23,06,22,7.10
2009,05,23,06,23,7.20
2009,05,23,06,24,7.20
2009,05,23,06,25,7.30
2009,05,23,06,26,7.30
2009,05,23,06,27,7.30
2009,05,23,06,28,7.30
2009,05,23,06,29,7.30
2009,05,23,06,30,7.40
2009,05,23,06,31,7.40
2009,05,23,06,32,7.50
2009,05,23,06,33,7.60
2009,05,23,06,34,7.70
2009,05,23,06,35,7.80
2009,05,23,06,36,7.90
2009,05,23,06,37,8.00
2009,05,23,06,38,8.10
2009,05,23,06,39,8.20
2009,05,23,06,40,8.20
2009,05,23,06,41,8.20
2009,05,23,06,42,8.20
2009,05,23,06,43,8.20
2009,05,23,06,44,8.10
2009,05,23,06,45,8.10
2009,05,23,06,46,8.00
2009,05,23,06,47,8.00
2009,05,23,06,48,7.90
2009,05,23,06,49,7.90
2009,05,23,06,50,7.90
2009,05,23,06,51,7.90
2009,05,23,06,52,8.00
2009,05,23,06,53,8.00
2009,05,23,06,54,8.00
2009,05,23,06,55,8.10
2009,05,23,06,56,8.10
2009,05,23,06,57,8.20
2009,05,23,06,58,8.20
2009,05,23,06,59,8.20
2009,05,23,07,00,8.30
2009,05,23,07,01,8.40
2009,05,23,07,02,8.40
2009,05,23,07,03,8.50
2009,05,23,07,04,8.60
2009,05,23,07,05,8.60
2009,05,23,07,06,8.70
2009,05,23,07,07,8.70
2009,05,23,07,08,8.80
2009,05,23,07,09,8.90
2009,05,23,07,10,8.90
2009,05,23,07,11,9.00
2009,05,23,07,12,9.10
2009,05,23,07,13,9.20
2009,05,23,07,14,9.20
2009,05,23,07,15,9.30
2009,05,23,07,16,9.30
2009,05,23,07,17,9.40
2009,05,23,07,18,9.50
2009,05,23,07,19,9.50
2009,05,23,07,20,9.60
2009,05,23,07,21,9.60
2009,05,23,07,22,9.70
2009,05,23,07,23,9.70
2009,05,23,07,24,9.70
2009,05,23,07,25,9.70
2009,05,23,07,26,9.80
2009,05,23,07,27,9.80
2009,05,23,07,28,9.90
2009,05,23,07,29,9.90
2009,05,23,07,30,9.90
2009,05,23,07,31,9.90
2009,05,23,07,32,9.90
2009,05,23,07,33,9.90
2009,05,23,07,34,9.90
2009,05,23,07,35,9.90
2009,05,23,07,36,9.90
2009,05,23,07,37,9.90
2009,05,23,07,38,9.90
2009,05,23,07,39,10.00
2009,05,23,07,40,10.10
2009,05,23,07,41,10.10
2009,05,23,07,42,10.10
2009,05,23,07,43,10.10
2009,05,23,07,44,10.20
2009,05,23,07,45,10.20
2009,05,23,07,46,10.20
2009,05,23,07,47,10.30
2009,05,23,07,48,10.30
2009,05,23,07,49,10.30
2009,05,23,07,50,10.40
2009,05,23,07,51,10.40
2009,05,23,07,52,10.40
2009,05,23,07,53,10.40
2009,05,23,07,54,10.50
2009,05,23,07,55,10.60
2009,05,23,07,56,10.60
2009,05,23,07,57,10.60
2009,05,23,07,58,10.60
2009,05,23,07,59,10.60
2009,05,23,08,00,10.60
2009,05,23,08,01,10.70
2009,05,23,08,02,10.80
2009,05,23,08,03,10.80
2009,05,23,08,04,10.90
2009,05,23,08,05,10.90
2009,05,23,08,06,10.90
2009,05,23,08,07,11.00
2009,05,23,08,08,11.10
2009,05,23,08,09,11.10
2009,05,23,08,10,11.10
2009,05,23,08,11,11.20
2009,05,23,08,12,11.30
2009,05,23,08,13,11.30
2009,05,23,08,14,11.40
2009,05,23,08,15,11.40
2009,05,23,08,16,11.40
2009,05,23,08,17,11.40
2009,05,23,08,18,11.40
2009,05,23,08,19,11.50
2009,05,23,08,20,11.60
2009,05,23,08,21,11.60
2009,05,23,08,22,11.60
2009,05,23,08,23,11.60
2009,05,23,08,24,11.60
2009,05,23,08,25,11.60
2009,05,23,08,26,11.70
2009,05,23,08,27,11.70
2009,05,23,08,28,11.80
2009,05,23,08,29,11.80
2009,05,23,08,30,11.80
2009,05,23,08,31,11.80
2009,05,23,08,32,11.80
2009,05,23,08,33,11.70
2009,05,23,08,34,11.70
2009,05,23,08,35,11.70
2009,05,23,08,36,11.70
2009,05,23,08,37,11.70
2009,05,23,08,38,11.80
2009,05,23,08,39,11.80
2009,05,23,08,40,11.80
2009,05,23,08,41,11.80
2009,05,23,08,42,11.80
2009,05,23,08,43,11.80
2009,05,23,08,44,11.80
2009,05,23,08,45,11.90
2009,05,23,08,46,11.90
2009,05,23,08,47,11.90
2009,05,23,08,48,11.90
2009,05,23,08,49,12.00
2009,05,23,08,50,12.00
2009,05,23,08,51,12.10
2009,05,23,08,52,12.10
2009,05,23,08,53,12.10
2009,05,23,08,54,12.10
2009,05,23,08,55,12.10
2009,05,23,08,56,12.00
2009,05,23,08,57,11.90
2009,05,23,08,58,11.80
2009,05,23,08,59,11.80
2009,05,23,09,00,11.80
2009,05,23,09,01,11.80
2009,05,23,09,02,11.80
2009,05,23,09,03,11.80
2009,05,23,09,04,11.80
2009,05,23,09,05,11.90
2009,05,23,09,06,11.90
2009,05,23,09,07,11.90
2009,05,23,09,08,12.00
2009,05,23,09,09,12.10
2009,05,23,09,10,12.20
2009,05,23,09,11,12.30
2009,05,23,09,12,12.40
2009,05,23,09,13,12.50
2009,05,23,09,14,12.50
2009,05,23,09,15,12.60
2009,05,23,09,16,12.60
2009,05,23,09,17,12.60
2009,05,23,09,18,12.70
2009,05,23,09,19,12.70
2009,05,23,09,20,12.70
2009,05,23,09,21,12.60
2009,05,23,09,22,12.60
2009,05,23,09,23,12.60
2009,05,23,09,24,12.60
2009,05,23,09,25,12.50
2009,05,23,09,26,12.50
2009,05,23,09,27,12.50
2009,05,23,09,28,12.40
2009,05,23,09,29,12.30
2009,05,23,09,30,12.20
2009,05,23,09,31,12.10
2009,05,23,09,32,12.10
2009,05,23,09,33,12.00
2009,05,23,09,34,12.00
2009,05,23,09,35,11.90
2009,05,23,09,36,11.90
2009,05,23,09,37,11.90
2009,05,23,09,38,11.90
2009,05,23,09,39,11.90
2009,05,23,09,40,11.90
2009,05,23,09,41,11.90
2009,05,23,09,42,11.90
2009,05,23,09,43,11.80
2009,05,23,09,44,11.80
2009,05,23,09,45,11.90
2009,05,23,09,46,11.90
2009,05,23,09,47,12.00
2009,05,23,09,48,12.10
2009,05,23,09,49,12.10
2009,05,23,09,50,12.20
2009,05,23,09,51,12.20
2009,05,23,09,52,12.30
2009,05,23,09,53,12.40
2009,05,23,09,54,12.40
2009,05,23,09,55,12.50
2009,05,23,09,56,12.50
2009,05,23,09,57,12.50
2009,05,23,09,58,12.50
2009,05,23,09,59,12.60
2009,05,23,10,00,12.60
2009,05,23,10,01,12.60
2009,05,23,10,02,12.50
2009,05,23,10,03,12.40
2009,05,23,10,04,12.40
2009,05,23,10,05,12.40
2009,05,23,10,06,12.40
2009,05,23,10,07,12.40
2009,05,23,10,08,12.50
2009,05,23,10,09,12.50
2009,05,23,10,10,12.50
2009,05,23,10,11,12.50
2009,05,23,10,12,12.50
2009,05,23,10,13,12.60
2009,05,23,10,14,12.60
2009,05,23,10,15,12.50
2009,05,23,10,16,12.50
2009,05,23,10,17,12.40
2009,05,23,10,18,12.50
2009,05,23,10,19,12.60
2009,05,23,10,20,12.70
2009,05,23,10,21,12.80
2009,05,23,10,22,12.80
2009,05,23,10,23,12.90
2009,05,23,10,24,13.00
2009,05,23,10,25,13.00
2009,05,23,10,26,13.10
2009,05,23,10,27,13.10
2009,05,23,10,28,13.20
2009,05,23,10,29,13.10
2009,05,23,10,30,13.00
2009,05,23,10,31,12.90
2009,05,23,10,32,12.80
2009,05,23,10,33,12.80
2009,05,23,10,34,12.80
2009,05,23,10,35,12.80
2009,05,23,10,36,12.80
2009,05,23,10,37,12.80
2009,05,23,10,38,12.90
2009,05,23,10,39,12.90
2009,05,23,10,40,12.90
2009,05,23,10,41,12.90
2009,05,23,10,42,13.00
2009,05,23,10,43,13.00
2009,05,23,10,44,13.10
2009,05,23,10,45,13.20
2009,05,23,10,46,13.20
2009,05,23,10,47,13.20
2009,05,23,10,48,13.20
2009,05,23,10,49,13.20
2009,05,23,10,50,13.10
2009,05,23,10,51,13.10
2009,05,23,10,52,13.10
2009,05,23,10,53,13.00
2009,05,23,10,54,13.00
2009,05,23,10,55,13.00
2009,05,23,10,56,13.10
2009,05,23,10,57,13.30
2009,05,23,10,58,13.40
2009,05,23,10,59,13.50
2009,05,23,11,00,13.60
2009,05,23,11,01,13.60
2009,05,23,11,02,13.70
2009,05,23,11,03,13.70
2009,05,23,11,04,13.70
2009,05,23,11,05,13.70
2009,05,23,11,06,13.70
2009,05,23,11,07,13.60
2009,05,23,11,08,13.50
2009,05,23,11,09,13.30
2009,05,23,11,10,13.50
2009,05,23,11,11,13.60
2009,05,23,11,12,13.60
2009,05,23,11,13,13.50
2009,05,23,11,14,13.40
2009,05,23,11,15,13.50
2009,05,23,11,16,13.50
2009,05,23,11,17,13.50
2009,05,23,11,18,13.50
2009,05,23,11,19,13.50
2009,05,23,11,20,13.50
2009,05,23,11,21,13.50
2009,05,23,11,22,13.40
2009,05,23,11,23,13.30
2009,05,23,11,24,13.20
2009,05,23,11,25,13.20
2009,05,23,11,26,13.20
2009,05,23,11,27,13.20
2009,05,23,11,28,13.40
2009,05,23,11,29,13.40
2009,05,23,11,30,13.30
2009,05,23,11,31,13.30
2009,05,23,11,32,13.40
2009,05,23,11,33,13.50
2009,05,23,11,34,13.60
2009,05,23,11,35,13.70
2009,05,23,11,36,13.70
2009,05,23,11,37,13.70
2009,05,23,11,38,13.70
2009,05,23,11,39,13.70
2009,05,23,11,40,13.80
2009,05,23,11,41,13.80
2009,05,23,11,42,13.90
2009,05,23,11,43,13.90
2009,05,23,11,44,13.80
2009,05,23,11,45,13.80
2009,05,23,11,46,13.70
2009,05,23,11,47,13.70
2009,05,23,11,48,13.70
2009,05,23,11,49,13.80
2009,05,23,11,50,13.90
2009,05,23,11,51,14.00
2009,05,23,11,52,14.00
2009,05,23,11,53,13.90
2009,05,23,11,54,13.90
2009,05,23,11,55,14.00
2009,05,23,11,56,13.90
2009,05,23,11,57,13.90
2009,05,23,11,58,14.00
2009,05,23,11,59,14.20
2009,05,23,12,00,14.20
2009,05,23,12,01,14.10
2009,05,23,12,02,14.20
2009,05,23,12,03,14.20
2009,05,23,12,04,14.20
2009,05,23,12,05,14.10
2009,05,23,12,06,14.10
2009,05,23,12,07,14.00
2009,05,23,12,08,14.00
2009,05,23,12,09,14.10
2009,05,23,12,10,14.20
2009,05,23,12,11,14.20
2009,05,23,12,12,14.20
2009,05,23,12,13,14.30
2009,05,23,12,14,14.40
2009,05,23,12,15,14.50
2009,05,23,12,16,14.40
2009,05,23,12,17,14.50
2009,05,23,12,18,14.50
2009,05,23,12,19,14.50
2009,05,23,12,20,14.50
2009,05,23,12,21,14.60
2009,05,23,12,22,14.60
2009,05,23,12,23,14.60
2009,05,23,12,24,14.60
2009,05,23,12,25,14.70
2009,05,23,12,26,14.80
2009,05,23,12,27,14.90
2009,05,23,12,28,15.00
2009,05,23,12,29,15.20
2009,05,23,12,30,15.30
2009,05,23,12,31,15.40
2009,05,23,12,32,15.40
2009,05,23,12,33,15.40
2009,05,23,12,34,15.30
2009,05,23,12,35,15.20
2009,05,23,12,36,15.00
2009,05,23,12,37,15.00
2009,05,23,12,38,15.00
2009,05,23,12,39,14.90
2009,05,23,12,40,14.90
2009,05,23,12,41,14.90
2009,05,23,12,42,14.90
2009,05,23,12,43,14.90
2009,05,23,12,44,14.80
2009,05,23,12,45,14.80
2009,05,23,12,46,14.70
2009,05,23,12,47,14.60
2009,05,23,12,48,14.50
2009,05,23,12,49,14.50
2009,05,23,12,50,14.60
2009,05,23,12,51,14.70
2009,05,23,12,52,14.60
2009,05,23,12,53,14.40
2009,05,23,12,54,14.30
2009,05,23,12,55,14.20
2009,05,23,12,56,14.30
2009,05,23,12,57,14.40
2009,05,23,12,58,14.50
2009,05,23,12,59,14.60
2009,05,23,13,00,14.60
2009,05,23,13,01,14.70
2009,05,23,13,02,14.70
2009,05,23,13,03,14.80
2009,05,23,13,04,14.70
2009,05,23,13,05,14.70
2009,05,23,13,06,14.70
2009,05,23,13,07,14.80
2009,05,23,13,08,14.80
2009,05,23,13,09,14.90
2009,05,23,13,10,14.90
2009,05,23,13,11,14.90
2009,05,23,13,12,15.00
2009,05,23,13,13,15.10
2009,05,23,13,14,15.20
2009,05,23,13,15,15.30
2009,05,23,13,16,15.30
2009,05,23,13,17,15.30
2009,05,23,13,18,15.20
2009,05,23,13,19,15.30
2009,05,23,13,20,15.40
2009,05,23,13,21,15.40
2009,05,23,13,22,15.30
2009,05,23,13,23,15.20
2009,05,23,13,24,15.20
2009,05,23,13,25,15.20
2009,05,23,13,26,15.30
2009,05,23,13,27,15.40
2009,05,23,13,28,15.40
2009,05,23,13,29,15.40
2009,05,23,13,30,15.30
2009,05,23,13,31,15.20
2009,05,23,13,32,15.30
2009,05,23,13,33,15.40
2009,05,23,13,34,15.30
2009,05,23,13,35,15.30
2009,05,23,13,36,15.30
2009,05,23,13,37,15.50
2009,05,23,13,38,15.60
2009,05,23,13,39,15.70
2009,05,23,13,40,15.70
2009,05,23,13,41,15.70
2009,05,23,13,42,15.90
2009,05,23,13,43,16.00
2009,05,23,13,44,16.10
2009,05,23,13,45,16.10
2009,05,23,13,46,16.30
2009,05,23,13,47,16.30
2009,05,23,13,48,16.20
2009,05,23,13,49,16.20
2009,05,23,13,50,16.20
2009,05,23,13,51,16.30
2009,05,23,13,52,16.40
2009,05,23,13,53,16.50
2009,05,23,13,54,16.60
2009,05,23,13,55,16.70
2009,05,23,13,56,16.70
2009,05,23,13,57,16.70
2009,05,23,13,58,16.70
2009,05,23,13,59,16.70
2009,05,23,14,00,16.60
2009,05,23,14,01,16.50
2009,05,23,14,02,16.50
2009,05,23,14,03,16.50
2009,05,23,14,04,16.40
2009,05,23,14,05,16.40
2009,05,23,14,06,16.20
2009,05,23,14,07,16.10
2009,05,23,14,08,16.10
2009,05,23,14,09,16.00
2009,05,23,14,10,16.10
2009,05,23,14,11,16.10
2009,05,23,14,12,16.10
2009,05,23,14,13,16.20
2009,05,23,14,14,16.10
2009,05,23,14,15,15.90
2009,05,23,14,16,15.80
2009,05,23,14,17,15.60
2009,05,23,14,18,15.50
2009,05,23,14,19,15.50
2009,05,23,14,20,15.40
2009,05,23,14,21,15.40
2009,05,23,14,22,15.50
2009,05,23,14,23,15.40
2009,05,23,14,24,15.50
2009,05,23,14,25,15.50
2009,05,23,14,26,15.50
2009,05,23,14,27,15.60
2009,05,23,14,28,15.70
2009,05,23,14,29,15.70
2009,05,23,14,30,15.80
2009,05,23,14,31,15.80
2009,05,23,14,32,15.70
2009,05,23,14,33,15.60
2009,05,23,14,34,15.60
2009,05,23,14,35,15.60
2009,05,23,14,36,15.60
2009,05,23,14,37,15.60
2009,05,23,14,38,15.70
2009,05,23,14,39,15.60
2009,05,23,14,40,15.60
2009,05,23,14,41,15.70
2009,05,23,14,42,15.80
2009,05,23,14,43,15.80
2009,05,23,14,44,15.90
2009,05,23,14,45,16.00
2009,05,23,14,46,16.10
2009,05,23,14,47,16.30
2009,05,23,14,48,16.40
2009,05,23,14,49,16.40
2009,05,23,14,50,16.60
2009,05,23,14,51,16.60
2009,05,23,14,52,16.60
2009,05,23,14,53,16.60
2009,05,23,14,54,16.70
2009,05,23,14,55,16.70
2009,05,23,14,56,16.70
2009,05,23,14,57,16.70
2009,05,23,14,58,16.70
2009,05,23,14,59,16.70
2009,05,23,15,00,16.60
2009,05,23,15,01,16.60
2009,05,23,15,02,16.60
2009,05,23,15,03,16.50
2009,05,23,15,04,16.40
2009,05,23,15,05,16.30
2009,05,23,15,06,16.10
2009,05,23,15,07,15.90
2009,05,23,15,08,15.70
2009,05,23,15,09,15.80
2009,05,23,15,10,15.80
2009,05,23,15,11,15.90
2009,05,23,15,12,15.90
2009,05,23,15,13,15.80
2009,05,23,15,14,15.80
2009,05,23,15,15,15.80
2009,05,23,15,16,15.80
2009,05,23,15,17,15.80
2009,05,23,15,18,15.90
2009,05,23,15,19,15.90
2009,05,23,15,20,16.00
2009,05,23,15,21,16.10
2009,05,23,15,22,15.90
2009,05,23,15,23,15.90
2009,05,23,15,24,15.90
2009,05,23,15,25,15.80
2009,05,23,15,26,15.90
2009,05,23,15,27,15.80
2009,05,23,15,28,15.90
2009,05,23,15,29,16.00
2009,05,23,15,30,16.00
2009,05,23,15,31,15.90
2009,05,23,15,32,15.90
2009,05,23,15,33,15.90
2009,05,23,15,34,15.90
2009,05,23,15,35,15.80
2009,05,23,15,36,15.80
2009,05,23,15,37,15.70
2009,05,23,15,38,15.70
2009,05,23,15,39,15.80
2009,05,23,15,40,15.90
2009,05,23,15,41,15.90
2009,05,23,15,42,15.80
2009,05,23,15,43,15.80
2009,05,23,15,44,15.90
2009,05,23,15,45,16.00
2009,05,23,15,46,16.00
2009,05,23,15,47,16.10
2009,05,23,15,48,16.20
2009,05,23,15,49,16.20
2009,05,23,15,50,16.30
2009,05,23,15,51,16.30
2009,05,23,15,52,16.40
2009,05,23,15,53,16.60
2009,05,23,15,54,16.70
2009,05,23,15,55,16.90
2009,05,23,15,56,17.10
2009,05,23,15,57,17.20
2009,05,23,15,58,17.40
2009,05,23,15,59,17.60
2009,05,23,16,00,17.80
2009,05,23,16,01,17.90
2009,05,23,16,02,18.00
2009,05,23,16,03,18.10
2009,05,23,16,04,18.20
2009,05,23,16,05,18.50
2009,05,23,16,06,18.60
2009,05,23,16,07,18.70
2009,05,23,16,08,18.80
2009,05,23,16,09,18.90
2009,05,23,16,10,18.90
2009,05,23,16,11,18.90
2009,05,23,16,12,18.90
2009,05,23,16,13,18.90
2009,05,23,16,14,18.90
2009,05,23,16,15,18.70
2009,05,23,16,16,18.60
2009,05,23,16,17,18.60
2009,05,23,16,18,18.60
2009,05,23,16,19,18.60
2009,05,23,16,20,18.50
2009,05,23,16,21,18.50
2009,05,23,16,22,18.50
2009,05,23,16,23,18.40
2009,05,23,16,24,18.20
2009,05,23,16,25,18.20
2009,05,23,16,26,18.20
2009,05,23,16,27,18.20
2009,05,23,16,28,18.20
2009,05,23,16,29,18.30
2009,05,23,16,30,18.30
2009,05,23,16,31,18.30
2009,05,23,16,32,18.30
2009,05,23,16,33,18.40
2009,05,23,16,34,18.40
2009,05,23,16,35,18.30
2009,05,23,16,36,18.30
2009,05,23,16,37,18.40
2009,05,23,16,38,18.30
2009,05,23,16,39,18.30
2009,05,23,16,40,18.30
2009,05,23,16,41,18.30
2009,05,23,16,42,18.30
2009,05,23,16,43,18.30
2009,05,23,16,44,18.40
2009,05,23,16,45,18.40
2009,05,23,16,46,18.40
2009,05,23,16,47,18.50
2009,05,23,16,48,18.40
2009,05,23,16,49,18.40
2009,05,23,16,50,18.40
2009,05,23,16,51,18.40
2009,05,23,16,52,18.40
2009,05,23,16,53,18.40
2009,05,23,16,54,18.50
2009,05,23,16,55,18.50
2009,05,23,16,56,18.50
2009,05,23,16,57,18.50
2009,05,23,16,58,18.60
2009,05,23,16,59,18.70
2009,05,23,17,00,18.70
2009,05,23,17,01,18.80
2009,05,23,17,02,18.80
2009,05,23,17,03,18.80
2009,05,23,17,04,18.90
2009,05,23,17,05,18.90
2009,05,23,17,06,18.90
2009,05,23,17,07,18.80
2009,05,23,17,08,18.80
2009,05,23,17,09,18.90
2009,05,23,17,10,19.00
2009,05,23,17,11,19.20
2009,05,23,17,12,19.30
2009,05,23,17,13,19.30
2009,05,23,17,14,19.30
2009,05,23,17,15,19.30
2009,05,23,17,16,19.30
2009,05,23,17,17,19.40
2009,05,23,17,18,19.60
2009,05,23,17,19,19.70
2009,05,23,17,20,19.80
2009,05,23,17,21,19.90
2009,05,23,17,22,19.90
2009,05,23,17,23,20.00
2009,05,23,17,24,20.20
2009,05,23,17,25,20.30
2009,05,23,17,26,20.30
2009,05,23,17,27,20.20
2009,05,23,17,28,20.20
2009,05,23,17,29,20.30
2009,05,23,17,30,20.40
2009,05,23,17,31,20.40
2009,05,23,17,32,20.30
2009,05,23,17,33,20.30
2009,05,23,17,34,20.20
2009,05,23,17,35,20.20
2009,05,23,17,36,20.00
2009,05,23,17,37,19.90
2009,05,23,17,38,19.90